This demonstration page uses our WeatherBlox Daily Observations layout. Learn more.

Left ArrowRight Arrow

38.88101, -77.10428

Hourly Observations for October 20, 2022

Temp ( °F °C ) Dew Point ( °F °C ) Humidity (%) Winds ( mph kmh ) Pressure ( in mb ) Visibility ( mi km ) Precip ( " mm )
12:52 am 00:52 Partly Cloudy 45 7.2 34 1.1 65 65 WSW 7 11 30.03 1017 10 16 0.00 0.00
1:52 am 01:52 Mostly Clear 43 6.1 34 1.1 70 70 SW 8 13 30.03 1017 10 16 0.00 0.00
2:52 am 02:52 Mostly Clear 42 5.6 34 1.1 73 73 SW 6 9 30.02 1017 10 16 0.00 0.00
3:52 am 03:52 Mostly Clear 42 5.6 34 1.1 73 73 SW 6 9 30.03 1017 10 16 0.00 0.00
4:52 am 04:52 Mostly Clear 40 4.4 35 1.7 83 83 SSW 7 11 30.03 1017 10 16 0.00 0.00
5:52 am 05:52 Mostly Clear 41 5 33 0.6 73 73 SW 6 9 30.04 1017 10 16 0.00 0.00
6:52 am 06:52 Clear 40 4.4 34 1.1 79 79 S 6 9 30.04 1017 10 16 0.00 0.00
7:52 am 07:52 Mostly Sunny 42 5.6 35 1.7 76 76 SSW 6 9 30.06 1018 10 16 0.00 0.00
8:52 am 08:52 Mostly Sunny 46 7.8 37 2.8 71 71 S 8 13 30.08 1019 10 16 0.00 0.00
9:52 am 09:52 Mostly Sunny 50 10 40 4.4 68 68 S 8 13 30.08 1019 10 16 0.00 0.00
10:52 am 10:52 Mostly Sunny 53 11.7 41 5 63 63 S 10 17 30.06 1018 10 16 0.00 0.00
11:52 am 11:52 Mostly Sunny 57 13.9 32 0 38 38 SSW 14 22 30.05 1018 10 16 0.00 0.00
12:52 pm 12:52 Mostly Sunny 58 14.4 28 -2.2 32 32 SSW 15 24 30.03 1017 10 16 0.00 0.00
1:52 pm 13:52 Mostly Sunny 60 15.6 26 -3.3 27 27 S 13 20 29.99 1016 10 16 0.00 0.00
2:52 pm 14:52 Mostly Sunny 62 16.7 27 -2.8 26 26 SSW 16 26 29.96 1015 10 16 0.00 0.00
3:52 pm 15:52 Mostly Sunny 61 16.1 27 -2.8 27 27 S 15 24 29.94 1014 10 16 0.00 0.00
4:52 pm 16:52 Mostly Sunny 61 16.1 26 -3.3 26 26 SSW 17 28 29.94 1014 10 16 0.00 0.00
5:52 pm 17:52 Partly Cloudy 60 15.6 27 -2.8 28 28 SSW 12 19 29.94 1014 10 16 0.00 0.00
6:52 pm 18:52 Partly Cloudy 57 13.9 31 -0.6 37 37 S 10 17 29.96 1015 10 16 0.00 0.00
7:52 pm 19:52 Partly Cloudy 54 12.2 33 0.6 45 45 S 9 15 29.98 1015 10 16 0.00 0.00
8:52 pm 20:52 Partly Cloudy 53 11.7 38 3.3 56 56 S 8 13 29.99 1016 10 16 0.00 0.00
9:52 pm 21:52 Partly Cloudy 51 10.6 38 3.3 61 61 SSW 8 13 30.00 1016 10 16 0.00 0.00
10:52 pm 22:52 Mostly Cloudy 51 10.6 37 2.8 58 58 S 9 15 30.03 1017 10 16 0.00 0.00
11:52 pm 23:52 Mostly Cloudy 50 10 38 3.3 63 63 SW 7 11 30.04 1017 10 16 0.00 0.00

Powered by AerisWeather